This is the latest recevied weather packets stored in our database for station/object NK7I. If no packets are shown the sender has not sent any weather packets the latest 10 day(s).
| Time | Temp. | Humidity | Pressure | Rain* | Wind** | Luminosity | Snow |
|---|---|---|---|---|---|---|---|
| 1778006183 | 19.44° C | 35% | 1013.3 hPa | 0 mm | - | 1241 W/m² | - |
| 1778005883 | 18.89° C | 42% | 1013.4 hPa | 0 mm | - | 1239 W/m² | - |
| 1778005583 | 18.89° C | 36% | 1013.5 hPa | 0 mm | - | 1229 W/m² | - |
| 1778005283 | 18.89° C | 38% | 1013.5 hPa | 0 mm | - | 1222 W/m² | - |
| 1778004983 | 18.89° C | 34% | 1013.5 hPa | 0 mm | - | 1211 W/m² | - |
| 1778004683 | 18.89° C | 33% | 1013.5 hPa | 0 mm | - | 1204 W/m² | - |
| 1778004383 | 18.89° C | 35% | 1013.5 hPa | 0 mm | - | 1194 W/m² | - |
| 1778004083 | 18.89° C | 38% | 1013.6 hPa | 0 mm | - | 1183 W/m² | - |
| 1778003784 | 18.89° C | 36% | 1013.7 hPa | 0 mm | - | 1172 W/m² | - |
| 1778003483 | 18.33° C | 35% | 1013.6 hPa | 0 mm | - | 1164 W/m² | - |
| 1778003183 | 18.33° C | 37% | 1013.7 hPa | 0 mm | - | 1153 W/m² | - |
| 1778002883 | 18.33° C | 38% | 1013.9 hPa | 0 mm | - | 1139 W/m² | - |
| 1778002583 | 17.78° C | 40% | 1013.9 hPa | 0 mm | - | 1125 W/m² | - |
| 1778002284 | 17.22° C | 38% | 1014 hPa | 0 mm | - | 1116 W/m² | - |
| 1778001983 | 17.22° C | 41% | 1014.1 hPa | 0 mm | - | 1097 W/m² | - |
| 1778001683 | 16.67° C | 40% | 1014.1 hPa | 0 mm | - | 1088 W/m² | - |
| 1778001383 | 16.67° C | 40% | 1014.2 hPa | 0 mm | - | 1076 W/m² | - |
| 1778001083 | 16.67° C | 41% | 1014.2 hPa | 0 mm | - | 1058 W/m² | - |
| 1778000783 | 16.67° C | 42% | 1014.2 hPa | 0 mm | - | 1044 W/m² | - |
| 1778000483 | 16.67° C | 48% | 1014.2 hPa | 0 mm | - | 1025 W/m² | - |
| 1778000183 | 16.67° C | 41% | 1014.3 hPa | 0 mm | - | 1011 W/m² | - |
| 1777999883 | 16.11° C | 42% | 1014.3 hPa | 0 mm | - | 990 W/m² | - |
| 1777999583 | 16.11° C | 43% | 1014.3 hPa | 0 mm | - | 974 W/m² | - |
| 1777999284 | 16.11° C | 46% | 1014.3 hPa | 0 mm | - | 958 W/m² | - |
| 1777998983 | 15.56° C | 45% | 1014.4 hPa | 0 mm | - | 942 W/m² | - |
* Rain latest hour (hover to see other rain measurements)
** Current wind speed in m/s (hover to see current wind gust speed)